TimePDT,TemperatureF,Dew PointF,Humidity,Sea Level PressureIn,VisibilityMPH,Wind Direction,Wind SpeedMPH,Gust SpeedMPH,PrecipitationIn,Events,Conditions,WindDirDegrees,DateUTC
12:53 AM,66.9,55.9,68,30.09,10.0,Calm,Calm,-,N/A,,Mostly Cloudy,0,2013-08-18 07:53:00
1:53 AM,68.0,55.0,63,30.09,10.0,Calm,Calm,-,N/A,,Mostly Cloudy,0,2013-08-18 08:53:00
2:17 AM,66.2,55.4,68,30.09,10.0,Calm,Calm,-,N/A,,Overcast,0,2013-08-18 09:17:00
2:53 AM,66.9,54.0,63,30.09,10.0,Calm,Calm,-,N/A,,Overcast,0,2013-08-18 09:53:00
3:13 AM,64.4,55.4,73,30.09,10.0,South,3.5,-,N/A,,Overcast,170,2013-08-18 10:13:00
3:53 AM,64.9,55.9,73,30.09,10.0,SE,3.5,-,N/A,,Mostly Cloudy,140,2013-08-18 10:53:00
4:53 AM,63.0,54.0,72,30.10,10.0,South,5.8,-,N/A,,Overcast,190,2013-08-18 11:53:00
5:22 AM,62.6,53.6,72,30.10,10.0,South,6.9,-,N/A,,Scattered Clouds,170,2013-08-18 12:22:00
5:53 AM,61.0,54.0,78,30.11,10.0,SSE,5.8,-,N/A,,Scattered Clouds,160,2013-08-18 12:53:00
6:53 AM,61.0,54.0,78,30.12,10.0,South,5.8,-,N/A,,Mostly Cloudy,180,2013-08-18 13:53:00
7:53 AM,62.1,55.0,78,30.13,10.0,Variable,5.8,-,N/A,,Mostly Cloudy,0,2013-08-18 14:53:00
8:53 AM,64.9,55.0,70,30.14,10.0,SW,3.5,-,N/A,,Scattered Clouds,220,2013-08-18 15:53:00
9:53 AM,66.9,55.0,66,30.12,10.0,South,6.9,-,N/A,,Scattered Clouds,170,2013-08-18 16:53:00
10:53 AM,71.1,54.0,55,30.12,10.0,South,10.4,16.1,N/A,,Scattered Clouds,190,2013-08-18 17:53:00
11:53 AM,73.0,53.1,49,30.12,10.0,South,6.9,-,N/A,,Partly Cloudy,180,2013-08-18 18:53:00
12:53 PM,75.0,54.0,48,30.11,10.0,SSW,8.1,-,N/A,,Clear,210,2013-08-18 19:53:00
1:53 PM,78.1,55.9,46,30.11,10.0,WSW,8.1,-,N/A,,Scattered Clouds,250,2013-08-18 20:53:00
2:53 PM,78.1,55.9,46,30.10,10.0,WSW,6.9,-,N/A,,Scattered Clouds,240,2013-08-18 21:53:00
3:53 PM,79.0,55.9,45,30.10,10.0,West,9.2,-,N/A,,Scattered Clouds,280,2013-08-18 22:53:00
4:53 PM,75.9,55.0,48,30.09,10.0,WNW,8.1,-,N/A,,Scattered Clouds,300,2013-08-18 23:53:00
5:53 PM,75.0,54.0,48,30.09,10.0,NW,5.8,-,N/A,,Scattered Clouds,320,2013-08-19 00:53:00
6:53 PM,73.0,54.0,51,30.07,10.0,WNW,8.1,-,N/A,,Clear,290,2013-08-19 01:53:00
7:53 PM,71.1,53.1,53,30.08,10.0,WNW,6.9,-,N/A,,Mostly Cloudy,300,2013-08-19 02:53:00
8:53 PM,70.0,51.1,51,30.09,10.0,NNW,4.6,-,N/A,,Mostly Cloudy,340,2013-08-19 03:53:00
9:53 PM,70.0,50.0,49,30.09,10.0,Calm,Calm,-,N/A,,Mostly Cloudy,0,2013-08-19 04:53:00
10:53 PM,69.1,50.0,51,30.09,10.0,Calm,Calm,-,N/A,,Overcast,0,2013-08-19 05:53:00
11:53 PM,68.0,50.0,52,30.09,10.0,Calm,Calm,-,N/A,,Mostly Cloudy,0,2013-08-19 06:53:00